Regional Weather Roundup
Issued by NWS

Home | Current Version | Previous Version | Graphics & Text | Print | Product List | Glossary On
Versions: 1 2 3 4 5 6 7 8 9 10 11 12 13 14 15 16 17 18 19 20 21 22 23 24 25 26 27 28 29 30 31 32 33 34 35 36 37 38 39 40 41 42 43 44 45 46 47 48 49 50
000
ASUS43 KFSD 200710
RWRSD

WEATHER ROUNDUP FOR SOUTH DAKOTA
NATIONAL WEATHER SERVICE SIOUX FALLS SD
200 AM CDT SUN MAY 20 2018

NOTE: "FAIR" INDICATES FEW OR NO CLOUDS BELOW 12,000 FEET WITH NO
SIGNIFICANT WEATHER AND/OR OBSTRUCTIONS TO VISIBILITY.


SDZ001>005-009-010-012>017-200800-
NORTHWEST AND NORTH CENTRAL SOUTH DAKOTA

CITY           SKY/WX    TMP DP  RH WIND       PRES   REMARKS
BUFFALO          N/A     46  33  60 E6        30.19F
FAITH            N/A     43  37  79 E6        30.25F
MOBRIDGE       PTCLDY    51  38  60 NE8       30.23R
$$

SDZ012>016-024>037-041>051-057-063-072>074-200800-
SOUTHWEST AND SOUTH CENTRAL SOUTH DAKOTA

CITY           SKY/WX    TMP DP  RH WIND       PRES   REMARKS
RAPID CTY ARPT MOCLDY    40  35  83 NE6       30.25F
PIERRE         CLOUDY    49  40  71 N10       30.21R
CUSTER         CLOUDY    39  30  70 NE6       30.25F
ELLSWORTH AFB  MOCLDY    43  37  80 CALM      30.25S
PHILIP         MOCLDY    43  39  86 CALM      30.24S
PINE RIDGE     MOCLDY    43  42  97 CALM      30.25S
SPEARFISH      FAIR      43  39  87 SE5       30.26S
WINNER         CLOUDY    51  38  60 N8        30.19R
$$

SDZ004>011-016>023-039-040-200800-
NORTHEAST SOUTH DAKOTA

CITY           SKY/WX    TMP DP  RH WIND       PRES   REMARKS
ABERDEEN       MOCLDY    47  35  63 N10       30.22R
WATERTOWN      CLOUDY    51  35  54 NE10      30.17S
BROOKINGS      CLOUDY    51  42  71 NE9       30.16S
SISSETON         N/A     46  34  62 NW3       30.21R
$$

SDZ017-020-022-023-036>040-048>070-200800-
SOUTHEAST SOUTH DAKOTA

CITY           SKY/WX    TMP DP  RH WIND       PRES   REMARKS
SIOUX FALLS    CLOUDY    54  43  66 NE18G28   30.13R
HURON          CLOUDY    50  38  63 N7        30.18R
CHAMBERLAIN    CLOUDY    53  38  57 N6        30.18S
MITCHELL       CLOUDY    57  41  55 NE10      30.16R
YANKTON        CLOUDY    54  54 100 N6        30.11F
$$

ABBREVIATIONS USED IN REMARKS
   TC - TEMPERATURE IN CELSIUS
  WCI - WIND CHILL INDEX
   HX - HEAT INDEX
  VSB - VISIBILITY




USA.gov is the U.S. government's official web portal to all federal, state and local government web resources and services.